Date,TemperatureHighF,TemperatureAvgF,TemperatureLowF,DewpointHighF,DewpointAvgF,DewpointLowF,HumidityHigh,HumidityAvg,HumidityLow,PressureMaxIn,PressureMinIn,WindSpeedMaxMPH,WindSpeedAvgMPH,GustSpeedMaxMPH,PrecipitationSumIn
2014-1-1,6.1,3.6,1.0,4.1,0.7,-2.1,94,87,80,30.38,30.22,16,9,16,0.00
2014-1-2,7.3,-2.7,-13.7,-0.9,-6.1,-16.8,87,85,65,30.47,30.34,16,8,16,0.00
2014-1-3,30.6,11.7,-14.8,26.1,7.7,-18.0,90,84,75,30.43,29.61,30,14,30,0.00
2014-1-4,32.9,18.4,4.1,31.4,14.7,-0.3,96,85,77,30.21,29.61,29,17,29,0.00
2014-1-5,4.1,-2.4,-14.4,-0.3,-9.8,-22.4,82,70,55,30.41,30.20,29,19,29,0.00
2014-1-6,-1.8,-10.7,-17.5,-11.4,-17.9,-24.9,79,69,59,30.41,30.27,24,12,24,0.00
2014-1-7,0.0,-4.2,-9.2,-13.8,-13.8,-13.8,79,36,79,30.29,30.11,4,2,4,0.00
2014-1-8,0.0,0.0,0.0,-13.8,-13.8,-13.8,0,0,100,30.45,30.26,0,0,0,0.00
2014-1-9,0.0,0.0,0.0,-13.8,-13.8,-13.8,0,0,100,30.29,30.29,0,0,0,0.00
2014-1-18,34.9,18.5,12.4,34.6,17.6,12.2,99,96,87,30.22,29.77,27,12,29,0.00
2014-1-19,55.0,34.9,15.6,36.4,28.0,15.4,99,79,46,30.14,29.77,22,11,22,0.00
2014-1-20,38.1,25.0,1.6,34.2,23.6,-3.9,99,95,75,30.56,29.99,34,10,34,0.01
2014-1-21,10.6,1.3,-9.6,7.8,-3.6,-13.2,90,79,68,30.65,30.23,27,9,27,0.00
2014-1-22,17.1,7.6,-7.2,13.7,3.3,-11.9,92,82,68,30.69,30.17,25,14,27,0.00
2014-1-23,8.8,-2.8,-10.1,0.0,-8.5,-14.7,86,76,62,30.93,30.61,17,10,17,0.00
2014-1-24,37.6,24.5,0.9,37.3,15.7,-4.0,99,70,52,30.61,29.79,36,18,36,0.00
2014-1-25,34.5,21.1,12.0,34.3,8.9,-5.8,99,61,30,30.19,29.71,32,14,32,0.00
2014-1-26,41.2,24.3,-1.3,34.8,16.9,-9.6,98,73,57,30.39,29.58,36,18,36,0.00
2014-1-27,5.5,-3.1,-10.1,-7.0,-11.1,-14.7,81,68,51,30.66,30.39,25,10,27,0.00
2014-1-28,16.7,0.5,-11.6,-2.3,-9.6,-15.8,84,64,37,30.64,30.40,19,5,19,0.00
2014-1-29,40.1,19.5,-3.5,14.5,1.9,-11.2,76,50,18,30.40,29.85,39,14,39,0.00
2014-1-30,35.8,23.4,4.8,31.4,13.1,0.0,99,69,35,30.27,29.64,52,18,52,0.00
2014-1-31,20.3,8.8,2.3,7.8,2.4,-1.8,84,75,55,30.39,30.19,21,5,21,0.00
2014-2-1,26.4,13.7,3.2,20.5,11.2,0.3,98,90,69,30.45,30.12,17,6,17,0.00
2014-2-2,21.6,3.3,-11.4,11.0,-2.1,-14.2,92,79,53,30.56,30.45,12,4,12,0.00
2014-2-3,32.0,13.5,-3.1,21.6,8.8,-6.4,93,82,59,30.50,30.42,14,5,14,0.00
2014-2-4,19.8,13.5,3.6,17.8,11.6,2.5,97,92,84,30.55,30.46,28,9,28,0.00
2014-2-5,7.9,1.1,-10.5,2.7,-2.6,-13.8,95,84,68,30.76,30.51,29,14,29,0.00
2014-2-6,9.5,-4.5,-13.7,1.5,-8.6,-17.0,90,82,64,30.74,30.56,14,5,14,0.00
2014-2-7,17.2,4.3,-12.1,6.9,-1.4,-14.9,90,77,58,30.56,30.37,23,7,23,0.00
2014-2-8,21.9,12.8,7.9,16.7,10.4,5.9,97,90,76,30.38,30.24,11,6,11,0.00
2014-2-9,8.8,0.3,-10.7,7.9,-3.6,-13.3,96,83,66,30.60,30.36,17,7,17,0.00
2014-2-10,7.2,-6.2,-17.7,-2.4,-11.7,-21.5,87,76,54,30.69,30.59,11,4,11,0.00
2014-2-11,14.9,0.9,-19.7,8.4,-4.8,-23.4,87,76,60,30.68,30.34,22,8,22,0.00
2014-2-12,32.7,16.7,10.0,22.1,13.2,5.2,99,87,58,30.35,30.06,21,7,21,0.00
2014-2-13,44.1,26.0,11.3,35.7,22.5,9.2,99,87,69,30.09,29.81,30,14,30,0.00
2014-2-14,14.9,9.2,-3.5,10.6,6.2,-5.3,98,88,72,30.28,29.90,19,10,19,0.00
2014-2-15,32.9,14.0,-4.2,32.5,12.5,-6.0,99,94,86,30.26,29.98,24,10,25,0.00
2014-2-16,27.5,20.0,14.9,22.4,17.4,13.8,99,90,67,30.41,30.16,20,10,20,0.00
2014-2-17,41.0,29.7,21.4,36.1,27.3,20.2,99,91,72,30.17,29.94,24,9,25,0.06
2014-2-18,55.6,37.5,21.9,43.4,32.3,20.0,99,82,56,30.06,29.78,19,8,19,0.00
2014-2-19,52.2,37.9,26.4,40.1,33.9,26.2,99,87,56,30.13,29.85,21,6,21,0.00
2014-2-20,35.8,33.0,21.7,35.5,32.7,21.5,99,99,95,29.86,29.48,30,10,30,0.00
2014-2-21,33.4,22.3,14.0,26.7,18.3,12.1,99,85,59,30.09,29.75,28,8,28,0.00
2014-2-22,28.2,18.7,7.5,18.0,12.8,5.8,99,79,50,30.38,30.07,12,6,12,0.00
2014-2-23,28.0,14.8,3.9,15.9,9.1,1.9,97,79,48,30.54,30.37,12,5,12,0.01
2014-2-24,22.6,12.4,5.2,11.5,8.2,2.9,99,84,54,30.58,30.44,14,5,14,0.00
2014-2-25,12.6,4.7,-3.5,9.2,0.5,-7.2,99,82,61,30.61,30.50,19,9,19,0.00
2014-2-26,22.1,7.4,-12.8,16.6,1.4,-15.5,90,77,57,30.60,29.99,40,12,40,0.00
2014-2-27,8.8,-2.6,-9.8,6.3,-12.4,-19.9,90,63,33,30.41,30.14,30,8,30,0.00
2014-2-28,33.3,13.8,-8.1,20.6,9.2,-12.7,99,82,52,30.30,30.06,24,10,24,0.00
2014-3-1,14.5,1.4,-4.5,14.4,-0.6,-8.0,99,90,84,30.67,30.29,28,17,28,0.00
2014-3-2,-1.3,-7.4,-16.1,-8.0,-14.0,-20.0,85,72,53,30.76,30.66,27,11,27,0.00
2014-3-3,15.3,2.6,-17.1,10.2,-5.2,-20.5,89,70,42,30.72,30.40,14,6,14,0.00
2014-3-4,34.2,16.5,2.3,15.4,8.9,-2.6,89,73,37,30.41,30.25,17,7,17,0.00
2014-3-5,22.5,19.6,17.4,19.7,17.5,14.6,99,92,85,30.55,30.37,17,11,17,0.00
2014-3-6,34.3,25.4,18.0,30.2,23.5,17.2,99,93,77,30.53,30.07,17,9,17,0.00
2014-3-7,39.7,30.4,23.2,37.3,29.4,22.2,99,96,89,30.33,29.98,27,12,27,0.00
2014-3-8,31.1,22.5,14.0,26.0,20.2,13.6,99,91,77,30.51,30.32,21,10,21,0.00
2014-3-9,43.2,31.5,11.1,39.1,28.7,11.0,99,90,78,30.45,29.97,21,9,21,0.00
2014-3-10,59.0,46.0,35.6,49.9,40.9,34.4,99,83,55,29.97,29.88,17,4,17,0.00
2014-3-11,39.9,37.6,34.0,39.7,36.2,30.0,99,95,83,30.16,29.82,30,13,30,0.00
2014-3-12,34.0,30.2,25.9,30.8,25.1,19.2,96,81,63,30.33,30.16,27,11,28,0.00
2014-3-13,60.8,43.4,28.4,47.4,36.2,27.5,99,78,51,30.29,29.85,22,9,22,0.00
2014-3-14,51.1,42.3,34.3,42.2,36.4,32.1,99,80,65,30.17,29.80,24,11,24,0.00
2014-3-15,40.6,32.4,26.6,34.2,29.8,25.4,99,91,65,30.47,30.16,19,8,19,0.00
2014-3-16,33.1,25.1,17.8,26.7,18.9,12.7,99,77,55,30.58,30.28,16,8,16,0.00
2014-3-17,46.4,32.4,22.3,33.4,25.6,18.8,91,77,54,30.28,29.75,25,13,25,0.00
2014-3-18,53.2,39.1,32.0,41.3,34.6,28.3,99,85,57,29.87,29.73,18,7,18,0.04
2014-3-19,41.5,33.9,28.6,35.8,31.8,28.3,99,92,75,30.22,29.87,27,14,27,0.01
2014-3-20,52.9,40.2,27.7,40.8,34.3,27.5,99,82,48,30.24,30.10,14,6,14,0.00
2014-3-21,57.7,39.8,27.9,45.1,34.6,25.1,99,83,51,30.35,29.98,26,11,26,0.00
2014-3-22,28.9,23.6,17.8,25.3,15.9,10.8,90,72,55,30.68,30.35,23,15,23,0.00
2014-3-23,33.3,23.8,13.8,19.5,12.9,7.6,90,65,39,30.71,30.53,18,7,18,0.00
2014-3-24,41.0,29.2,23.2,33.1,25.0,17.3,99,85,52,30.55,30.34,17,6,17,0.04
2014-3-25,31.8,23.8,17.2,24.2,16.1,10.2,97,74,42,30.54,30.36,24,9,24,0.00
2014-3-26,52.7,35.8,18.5,41.6,22.7,15.9,91,63,31,30.40,29.88,43,14,46,0.00
2014-3-27,49.5,41.2,33.6,49.2,40.8,33.4,99,99,88,29.91,29.48,36,14,36,0.57
2014-3-28,35.8,32.9,31.5,33.4,32.1,31.2,99,97,85,30.31,29.91,21,11,21,0.00
2014-3-29,51.1,38.8,28.6,37.3,32.0,28.3,99,79,47,30.49,30.33,9,5,9,0.00
2014-3-30,68.7,58.5,34.2,44.1,40.3,32.5,96,53,33,30.30,29.97,37,11,37,0.00
2014-3-31,72.5,50.1,25.3,54.8,39.9,19.2,97,69,45,29.97,29.56,57,17,57,0.14
2014-4-1,45.3,32.1,19.6,32.2,23.3,14.2,89,71,48,30.29,29.94,28,10,28,0.00
2014-4-2,49.3,38.6,29.3,38.8,33.7,29.1,99,84,58,30.32,30.07,21,11,21,0.00
2014-4-3,42.3,38.5,32.9,41.8,38.1,32.7,99,99,88,30.08,29.77,23,12,23,0.17
2014-4-4,40.8,33.5,28.4,37.3,31.8,28.2,99,94,76,30.33,29.77,28,14,28,0.04
2014-4-5,54.9,39.9,25.3,38.5,32.0,24.9,99,76,40,30.38,30.20,21,6,24,0.00
2014-4-6,61.9,47.3,35.4,49.7,41.1,30.7,99,80,54,30.23,30.07,22,7,22,0.00
2014-4-7,62.2,49.3,39.2,50.5,44.3,38.4,99,84,53,30.09,29.93,28,6,28,0.00
2014-4-8,53.8,44.2,32.0,41.5,37.3,30.4,99,78,49,30.25,30.03,23,11,23,0.00
2014-4-9,75.9,52.9,30.0,37.8,29.5,16.8,99,53,12,30.23,29.84,42,16,42,0.00
2014-4-10,67.1,56.4,45.9,42.6,28.0,6.8,82,41,10,30.20,29.80,40,10,40,0.00
2014-4-11,78.1,58.8,38.1,34.7,24.1,9.9,74,35,10,30.21,30.07,28,8,28,0.00
2014-4-12,86.4,67.6,53.8,64.1,47.6,30.2,99,51,33,30.08,29.70,40,13,40,0.27
2014-4-13,53.6,41.1,31.5,53.3,40.8,31.2,99,99,99,29.98,29.80,38,20,38,0.71
2014-4-14,38.8,31.7,27.3,31.9,26.2,20.1,99,81,56,30.34,29.97,39,18,39,0.00
2014-4-15,43.9,32.6,22.6,29.9,22.3,11.9,96,69,32,30.40,30.18,17,7,17,0.00
2014-4-16,63.1,47.4,33.4,44.5,34.2,28.7,99,65,28,30.19,29.92,40,16,40,0.02
2014-4-17,54.1,39.2,30.6,36.4,32.6,30.3,99,80,41,30.50,30.14,21,9,24,0.00
2014-4-18,64.9,46.6,28.9,39.7,32.7,25.3,99,66,23,30.55,30.35,16,8,19,0.00
2014-4-19,75.7,51.7,41.4,43.5,37.5,34.0,77,61,31,30.39,30.27,24,11,24,0.00
2014-4-20,82.9,72.4,62.1,56.2,54.8,50.1,80,56,32,30.17,30.09,29,11,29,0.01
2014-4-21,73.4,62.0,47.5,64.2,49.8,29.5,99,70,22,30.27,30.12,28,10,28,0.02
2014-4-22,65.7,52.1,32.7,40.3,34.4,26.6,99,55,23,30.35,30.21,24,7,24,0.00
2014-4-23,53.4,47.7,44.4,44.7,38.7,30.4,98,73,45,30.27,29.98,33,14,33,0.08
2014-4-24,57.6,49.1,41.5,54.6,47.4,41.3,99,94,85,30.04,29.81,30,10,30,0.05
2014-4-25,78.8,57.7,37.4,50.8,35.2,14.0,99,57,10,30.06,29.96,15,4,15,0.00
2014-4-26,69.8,58.3,45.7,46.1,42.8,39.7,86,58,38,30.08,29.88,34,17,34,0.00
2014-4-27,58.3,47.6,41.7,56.2,43.5,36.2,99,86,60,29.95,29.69,37,24,37,0.43
2014-4-30,41.9,40.2,37.0,41.6,40.0,36.8,99,99,99,30.01,29.96,15,11,15,0.21
2014-5-1,48.4,43.6,39.6,47.0,43.0,39.3,99,98,93,30.12,29.96,19,11,19,0.02
2014-5-2,66.9,52.0,37.0,48.7,42.7,36.8,99,72,44,30.11,29.87,30,6,30,0.00
2014-5-3,71.4,54.3,39.0,54.4,42.7,33.0,98,71,27,30.16,29.99,20,6,20,0.00
2014-5-4,61.2,51.0,43.2,46.1,41.8,38.6,98,72,48,30.27,30.06,21,10,21,0.02
2014-5-5,69.6,57.1,44.8,42.6,38.1,29.7,78,51,32,30.12,30.04,20,11,20,0.00
2014-5-6,74.8,60.4,45.1,46.5,41.6,37.8,77,52,28,30.09,29.84,34,18,34,0.00
2014-5-7,89.6,73.8,54.0,67.0,57.8,42.7,80,59,41,29.88,29.74,32,13,32,0.00
2014-5-8,81.7,71.8,55.0,67.6,62.1,51.0,95,73,40,29.91,29.78,43,12,43,0.05
2014-5-9,69.4,56.8,48.4,52.8,41.6,24.8,96,64,19,30.06,29.88,20,7,20,0.00
2014-5-10,81.3,61.1,45.1,59.9,45.5,29.0,87,61,15,30.08,29.92,24,7,25,0.01
2014-5-11,73.0,61.2,50.4,70.6,59.9,50.1,99,96,84,30.14,29.87,22,7,22,0.53
2014-5-12,76.6,60.8,47.8,70.9,59.8,47.6,99,97,75,30.14,29.84,23,9,23,1.03
2014-5-13,58.5,50.7,45.1,49.2,44.4,38.2,99,81,53,30.45,30.13,23,10,23,0.00
2014-5-14,64.8,53.3,37.8,49.2,40.9,33.0,99,67,32,30.47,30.27,21,3,21,0.00
2014-5-15,49.6,44.1,37.6,43.0,37.5,34.4,92,78,62,30.33,30.26,23,12,23,0.02
2014-5-16,55.8,45.8,34.5,37.9,32.8,23.4,98,64,30,30.32,30.25,11,5,11,0.00
2014-5-17,68.2,54.2,35.8,41.3,29.4,14.1,91,47,13,30.35,30.26,25,4,25,0.00
2014-5-18,71.1,59.8,44.2,45.6,33.9,15.4,72,43,12,30.37,30.19,27,11,27,0.00
2014-5-19,73.9,64.9,55.8,62.1,53.8,42.8,81,68,54,30.23,29.91,29,12,29,0.00
2014-5-20,75.2,65.1,58.6,66.6,61.3,58.4,99,88,72,30.03,29.95,6,2,7,0.00
2014-5-21,81.0,73.9,59.4,52.2,43.4,30.2,64,36,17,30.31,30.18,20,10,20,0.00
2014-5-22,79.2,64.9,51.3,51.1,41.2,17.0,90,50,10,30.44,30.29,13,4,13,0.00
2014-5-23,80.6,67.8,52.7,47.4,40.4,28.0,72,41,15,30.42,30.29,15,6,15,0.00
2014-5-24,82.2,68.8,56.3,52.7,45.5,32.5,72,47,17,30.38,30.23,15,7,16,0.00
2014-5-25,75.9,67.2,59.4,69.5,62.1,50.6,99,84,62,30.27,30.11,16,7,16,0.00
2014-5-26,80.4,70.6,62.8,71.3,66.8,62.4,99,89,57,30.20,30.08,19,7,19,0.26
2014-5-27,82.8,71.2,62.6,71.9,67.1,62.3,99,88,58,30.16,30.09,18,4,18,0.05
2014-5-28,80.4,71.3,62.8,72.2,66.0,60.0,99,85,60,30.24,30.13,12,5,12,0.00
2014-5-29,86.7,74.6,62.8,66.9,61.9,56.7,83,66,46,30.29,30.19,17,7,17,0.00
2014-5-30,88.7,77.9,66.4,70.7,66.4,58.5,99,71,37,30.31,30.21,16,6,16,0.00
2014-5-31,87.6,76.1,66.7,73.3,68.9,62.3,99,80,43,30.30,30.14,21,8,21,0.01
2014-6-1,89.2,77.1,66.6,71.7,68.0,63.4,99,77,43,30.16,29.93,35,13,35,0.01
2014-6-2,84.4,73.3,63.0,68.1,61.4,52.4,99,71,36,30.14,29.96,19,7,19,0.01
2014-6-3,77.4,67.9,55.6,64.3,58.5,52.6,99,74,44,30.24,29.92,15,4,15,0.65
2014-6-4,75.4,68.3,61.9,69.5,65.5,61.6,99,91,78,30.12,29.74,19,5,19,0.07
2014-6-5,75.0,66.8,58.3,64.8,62.0,58.0,99,86,63,30.19,30.06,17,6,21,0.00
2014-6-6,86.7,73.4,58.1,71.0,61.5,49.6,99,72,29,30.18,30.08,13,4,13,0.00
2014-6-7,74.3,68.0,59.7,69.7,63.8,57.6,99,87,62,30.22,30.10,23,6,23,0.00
2014-6-8,74.8,65.6,55.6,57.9,55.7,51.1,99,72,48,30.30,30.19,15,6,15,0.00
2014-6-9,74.5,65.7,56.7,62.3,55.6,47.6,99,73,46,30.21,30.10,12,5,12,0.00
2014-6-10,76.8,68.1,60.1,61.8,55.3,47.3,82,64,48,30.13,30.05,12,5,14,0.00
2014-6-11,83.5,71.3,55.8,61.4,55.4,49.5,98,62,32,30.07,29.94,14,4,14,0.00
2014-6-12,73.8,67.6,57.2,60.8,49.6,33.2,82,55,26,30.24,29.97,18,8,18,0.00
2014-6-13,79.3,65.1,46.8,47.7,38.9,20.9,89,45,13,30.30,30.13,19,5,19,0.00
2014-6-14,83.8,70.5,56.1,61.3,54.7,47.7,83,58,44,30.18,29.87,30,14,30,0.00
2014-6-15,82.6,73.7,64.9,67.8,60.0,51.2,98,65,37,30.14,29.72,27,10,27,0.02
2014-6-16,86.5,72.5,60.3,74.5,66.3,57.2,99,82,59,30.18,29.86,31,10,31,0.15
2014-6-17,84.9,79.1,61.7,78.8,73.3,61.4,99,83,65,30.11,29.96,26,8,26,1.10
2014-6-18,86.9,78.7,67.3,80.8,75.7,67.0,99,91,74,30.09,29.96,17,8,18,0.04
2014-6-19,79.9,72.5,66.4,77.8,71.8,66.1,99,98,78,30.19,30.02,20,8,20,0.06
2014-6-20,90.3,75.3,62.1,76.9,65.3,53.6,99,76,30,30.22,30.06,14,4,14,0.01
2014-6-21,88.9,77.4,66.7,72.7,67.8,62.4,99,74,42,30.18,30.06,13,4,13,0.00
2014-6-22,75.7,70.0,64.8,72.2,68.4,64.5,99,95,80,30.17,29.98,14,4,14,0.66
2014-6-23,83.5,71.2,62.1,73.9,66.9,61.8,99,88,60,30.14,30.04,7,2,7,0.00
2014-6-24,83.7,72.3,60.3,68.5,64.4,59.9,99,79,46,30.19,30.13,8,2,8,0.00
2014-6-25,88.0,74.8,60.8,69.0,64.6,58.8,99,74,40,30.25,30.16,11,2,14,0.00
2014-6-26,82.0,71.7,65.8,74.4,69.3,65.4,99,93,65,30.22,30.08,27,6,27,0.34
2014-6-27,78.4,71.8,67.1,77.5,71.1,66.8,99,98,86,30.13,29.99,18,7,18,1.04
2014-6-28,85.5,73.7,62.8,77.7,72.2,62.3,99,95,74,30.06,29.93,38,10,38,0.31
2014-6-29,81.1,71.1,62.1,77.7,69.3,61.8,99,94,78,30.16,29.93,23,8,23,0.20
2014-6-30,73.2,67.5,63.0,73.0,67.2,62.7,99,99,95,30.09,29.81,30,5,40,1.96
2014-7-1,76.6,67.2,58.8,66.1,61.7,56.0,99,84,62,30.13,29.92,13,5,14,0.00
2014-7-2,69.1,60.3,54.7,58.8,56.3,53.6,99,87,65,30.32,30.12,17,4,17,0.00
2014-7-3,77.5,65.2,50.5,59.9,53.4,47.3,99,70,37,30.43,30.32,14,3,14,0.00
2014-7-4,79.5,69.2,56.1,63.3,58.7,54.2,99,72,43,30.50,30.37,15,6,15,0.00
2014-7-5,76.6,68.9,62.6,72.9,67.2,61.4,99,94,80,30.42,30.16,21,8,21,0.44
2014-7-6,89.6,76.7,68.2,83.9,73.8,67.9,99,91,69,30.17,29.94,23,7,23,0.00
2014-7-7,89.1,76.7,64.0,75.1,69.7,63.8,99,81,50,30.07,29.91,21,4,21,0.00
2014-7-8,79.5,71.3,63.1,66.1,62.1,57.2,99,75,48,30.16,29.96,12,5,12,0.00
2014-7-9,83.1,70.0,55.0,67.4,59.5,53.1,99,73,38,30.27,30.15,12,3,12,0.00
2014-7-10,83.3,73.0,61.2,66.4,61.7,50.9,99,71,33,30.32,30.23,20,8,20,0.00
2014-7-11,76.1,70.0,64.4,72.7,67.6,62.0,99,92,81,30.31,30.18,17,6,17,0.06
2014-7-12,82.2,72.5,66.6,77.0,71.4,66.3,99,96,79,30.28,30.14,15,3,15,0.27
2014-7-13,85.1,73.3,62.2,75.9,67.0,57.4,99,83,43,30.23,30.12,11,3,11,0.00
2014-7-14,73.6,65.4,56.1,67.9,55.9,45.5,99,74,41,30.26,30.13,24,6,24,0.00
2014-7-15,71.8,61.5,50.9,56.7,52.5,48.0,99,75,46,30.31,30.23,16,5,16,0.00
2014-7-16,77.5,64.7,50.5,58.5,53.9,49.3,99,72,39,30.29,30.22,13,2,13,0.00
2014-7-17,78.4,67.0,52.0,62.7,56.1,49.6,99,72,37,30.29,30.24,14,4,16,0.00
2014-7-18,79.5,69.2,57.0,64.9,60.3,55.9,99,76,45,30.30,30.20,20,6,20,0.00
2014-7-19,80.6,71.8,63.0,66.3,63.8,60.2,99,78,51,30.24,30.14,22,8,22,0.00
2014-7-20,84.6,74.3,63.7,69.4,66.7,63.4,99,79,53,30.18,30.06,22,8,22,0.00
2014-7-21,88.5,79.0,67.5,80.8,74.3,67.2,99,86,69,30.14,30.06,17,8,18,0.00
2014-7-22,89.4,80.8,67.8,79.5,73.8,64.8,99,81,58,30.33,30.06,17,6,20,0.00
2014-7-23,84.7,71.9,59.9,65.8,60.6,53.9,99,71,36,30.43,30.32,11,4,11,0.00
2014-7-24,79.3,68.4,59.0,68.1,62.5,58.5,99,83,50,30.39,30.03,28,5,28,0.20
2014-7-25,79.7,70.5,62.2,73.6,67.7,62.0,99,91,71,30.19,29.97,28,10,28,0.41
2014-7-26,84.7,76.2,67.6,77.6,73.5,67.4,99,92,74,30.12,29.99,14,3,14,0.00
2014-7-27,75.6,69.7,62.8,71.2,63.4,59.4,99,81,60,30.30,30.08,15,6,15,0.00
2014-7-28,76.5,66.4,57.9,64.1,60.2,54.8,99,82,52,30.43,30.29,11,3,11,0.00
2014-7-29,80.1,66.3,53.2,64.4,58.5,53.0,99,79,44,30.37,30.27,8,3,8,0.00
2014-7-30,83.3,67.9,53.8,65.3,58.9,52.0,99,77,35,30.33,30.26,11,2,11,0.00
2014-7-31,85.6,69.3,54.9,65.6,60.0,52.4,99,76,34,30.30,30.22,11,2,11,0.00
2014-8-1,87.3,71.5,56.5,66.6,61.7,56.2,99,75,41,30.31,30.25,10,1,10,0.00
2014-8-2,86.5,73.2,59.7,68.5,63.0,55.8,99,74,38,30.37,30.27,14,3,14,0.00
2014-8-3,85.6,74.7,63.1,70.0,66.4,62.7,99,78,48,30.35,30.23,10,4,10,0.00
2014-8-4,90.3,74.8,63.5,76.2,68.6,63.2,99,83,49,30.28,30.18,8,2,8,0.00
2014-8-5,81.0,71.2,61.5,73.3,68.3,61.3,99,91,71,30.29,30.22,8,2,8,0.00
2014-8-6,68.9,67.1,65.1,68.6,66.9,64.9,99,99,99,30.28,30.19,14,4,14,0.72
2014-8-7,72.5,68.8,66.4,70.3,67.8,66.1,99,97,85,30.21,30.17,16,7,16,0.00
2014-8-8,79.7,71.5,64.4,69.6,67.4,64.1,99,88,67,30.26,30.20,14,5,14,0.00
2014-8-9,81.1,72.2,64.0,69.6,66.9,63.8,99,85,63,30.28,30.22,14,5,14,0.00
2014-8-10,79.9,71.5,63.1,71.6,67.6,62.9,99,89,65,30.27,30.19,8,2,8,0.00
2014-8-11,77.9,66.1,62.1,68.6,64.1,56.7,99,94,56,30.24,30.19,15,3,15,0.00
2014-8-12,77.5,65.7,53.6,64.6,56.9,50.1,99,76,40,30.30,30.23,14,5,14,0.00
2014-8-13,84.6,67.9,52.7,64.1,58.0,52.4,99,75,39,30.34,30.26,10,2,10,0.00
2014-8-14,86.2,75.6,59.0,69.5,66.6,58.7,99,76,46,30.32,30.18,8,3,8,0.00
2014-8-15,70.5,67.9,64.9,70.3,67.6,64.7,99,99,98,30.22,30.09,11,5,11,0.31
2014-8-16,82.2,73.1,64.9,74.2,69.8,64.7,99,90,69,30.13,30.06,15,4,15,0.00
2014-8-17,88.0,74.6,62.4,77.5,70.1,62.2,99,87,55,30.19,30.07,12,3,12,0.00
2014-8-18,87.8,76.5,66.6,75.8,70.9,66.3,99,85,51,30.14,29.91,21,8,21,0.00
2014-8-19,87.3,74.6,64.6,72.5,67.9,63.8,99,82,48,30.03,29.93,11,2,11,0.00
2014-8-20,74.8,69.4,63.5,74.2,69.1,63.2,99,99,96,30.12,30.01,13,3,13,0.46
2014-8-21,85.6,77.8,70.5,80.0,75.3,70.3,99,92,70,30.09,29.97,27,7,27,0.17
2014-8-22,91.0,78.6,72.1,81.6,76.2,71.9,99,93,69,30.17,30.03,20,3,20,0.05
2014-8-23,82.4,75.5,70.7,79.7,74.7,70.4,99,97,85,30.16,30.05,21,6,21,0.22
2014-8-24,90.5,80.5,71.4,80.0,75.4,71.2,99,86,58,30.09,30.02,17,7,18,0.00
2014-8-25,87.6,76.3,67.1,76.8,71.4,66.2,99,86,54,30.26,30.07,13,4,13,0.00
2014-8-26,80.1,69.7,62.4,69.0,65.3,61.8,99,87,57,30.39,30.22,17,3,17,0.27
2014-8-27,75.6,69.2,63.1,68.7,65.8,62.8,99,89,73,30.40,30.26,13,4,13,0.00
2014-8-28,76.6,69.7,64.8,75.1,69.2,64.5,99,98,92,30.30,30.08,16,7,16,0.67
2014-8-29,82.8,71.9,65.3,76.6,70.0,65.0,99,94,73,30.13,29.95,18,6,18,0.84
2014-8-30,79.7,70.9,64.0,72.2,68.0,63.8,99,91,70,30.11,29.97,9,3,9,0.08
2014-8-31,87.4,72.3,61.0,76.6,69.1,60.7,99,91,62,30.09,29.83,33,7,33,0.31
2014-9-1,79.7,70.3,63.7,71.9,66.5,62.3,99,89,59,30.08,29.89,20,6,20,0.02
2014-9-2,82.4,68.6,59.4,65.2,61.8,55.7,99,82,44,30.18,30.06,14,3,14,0.08
2014-9-3,84.6,73.1,58.6,75.8,68.8,58.4,99,87,70,30.16,29.93,20,8,20,0.00
2014-9-4,90.5,79.9,73.0,79.2,75.1,72.8,99,87,60,30.11,29.92,30,11,30,0.00
2014-9-5,74.7,62.3,53.1,74.4,59.4,52.6,99,91,63,30.43,30.10,17,6,17,0.34
2014-9-6,80.4,60.9,46.9,58.5,53.1,46.7,99,80,34,30.47,30.38,12,2,12,0.00
2014-9-7,75.2,62.9,50.4,60.2,53.6,47.3,99,76,39,30.42,30.26,22,5,22,0.00
2014-9-8,70.5,62.0,54.1,67.9,60.5,53.9,99,95,83,30.27,30.04,20,6,20,0.09
2014-9-9,72.9,67.8,64.6,71.1,67.3,64.3,99,98,92,30.06,29.82,17,8,17,0.78
2014-9-10,67.6,60.9,50.0,67.4,59.9,48.8,99,96,88,30.26,29.77,21,8,21,0.02
2014-9-11,58.8,50.8,46.9,48.9,46.8,45.0,99,87,63,30.54,30.26,19,6,19,0.00
2014-9-12,52.3,46.9,39.7,47.4,44.6,39.3,99,92,73,30.63,30.50,13,3,13,0.26
2014-9-13,62.8,48.9,34.9,49.9,39.8,32.9,99,76,34,30.58,30.42,18,4,18,0.00
2014-9-14,70.0,58.1,46.4,54.7,49.3,45.0,99,76,42,30.43,30.29,22,6,22,0.00
2014-9-15,64.8,54.3,45.3,55.0,49.9,45.1,99,87,59,30.44,30.26,17,4,17,0.00
2014-9-16,68.7,54.6,38.1,51.9,45.0,37.9,99,74,38,30.45,30.23,19,4,19,0.00
2014-9-17,79.0,60.8,47.5,59.3,53.3,47.2,99,80,42,30.24,30.11,9,3,9,0.00
2014-9-18,74.7,58.5,49.3,63.2,53.6,47.6,99,86,39,30.29,30.19,14,4,14,0.00
2014-9-19,81.0,67.0,53.8,70.3,62.4,53.5,99,87,64,30.23,29.99,25,11,25,0.00
2014-9-20,82.2,71.4,57.4,72.8,63.9,50.6,99,80,42,30.18,29.98,24,7,26,0.22
2014-9-21,68.5,59.3,50.7,55.8,51.1,46.9,99,77,48,30.43,30.16,21,6,21,0.00
2014-9-22,76.6,59.9,43.2,56.6,48.6,40.5,99,72,32,30.51,30.38,14,3,14,0.00
2014-9-23,73.0,60.4,48.6,56.6,51.9,47.0,99,77,41,30.45,30.33,18,6,18,0.00
2014-9-24,69.3,60.7,54.1,62.0,57.4,53.9,99,89,71,30.42,30.33,19,8,19,1.20
2014-9-25,79.3,67.3,57.6,62.7,59.0,55.9,99,78,46,30.42,30.32,11,4,11,0.00
2014-9-26,82.2,68.8,57.0,64.2,59.6,56.7,99,76,44,30.36,30.29,15,6,15,0.00
2014-9-27,82.8,70.5,61.0,65.3,60.9,55.9,99,76,42,30.37,30.27,13,6,13,0.00
2014-9-28,85.6,67.5,57.7,65.5,58.1,52.3,99,74,36,30.35,30.25,11,2,11,0.00
2014-9-29,80.6,66.3,55.8,66.2,61.2,54.8,99,85,56,30.26,30.17,12,3,12,0.00
2014-9-30,70.2,59.0,52.9,61.1,56.5,52.6,99,92,69,30.22,30.03,21,8,21,0.50
2014-10-1,70.2,60.9,54.1,68.5,60.4,53.9,99,98,91,30.07,29.94,20,6,20,0.52
2014-10-2,64.9,59.8,51.4,64.7,59.5,51.2,99,99,99,30.02,29.88,16,4,16,0.08
2014-10-3,51.4,45.7,37.9,51.2,37.9,24.1,99,76,51,30.18,29.96,22,9,22,0.01
2014-10-4,52.7,42.1,32.9,34.3,30.2,24.9,91,65,37,30.13,29.97,15,6,15,0.00
2014-10-5,63.0,50.5,36.7,47.9,39.2,34.3,94,68,38,29.98,29.81,12,4,12,0.00
2014-10-6,65.3,51.7,41.5,49.0,42.0,33.1,99,74,30,29.89,29.80,14,4,14,0.00
2014-10-7,68.0,55.8,45.7,49.2,42.7,34.3,95,66,30,30.15,29.81,19,6,19,0.00
2014-10-8,72.1,55.6,37.6,45.3,34.3,14.8,99,55,12,30.29,30.15,17,3,17,0.00
2014-10-9,63.3,52.9,42.6,49.9,38.8,21.3,99,64,22,30.40,30.24,13,4,13,0.04
2014-10-10,57.4,45.9,33.6,39.6,34.9,30.1,99,69,37,30.45,30.36,12,4,12,0.00
2014-10-11,63.3,46.9,31.1,40.7,34.0,28.8,99,66,30,30.45,30.22,14,4,14,0.00
2014-10-12,57.4,47.3,34.7,52.2,44.7,34.5,99,91,68,30.22,29.96,17,7,17,0.00
2014-10-13,53.6,52.1,51.1,53.3,51.8,50.8,99,99,99,30.00,29.82,21,6,21,1.04
2014-10-14,64.2,53.7,49.3,51.7,47.2,37.3,99,82,39,30.12,29.81,32,17,32,0.24
2014-10-15,69.8,53.3,41.2,41.5,37.1,25.6,90,60,21,30.19,30.07,18,6,18,0.00
2014-10-16,75.6,55.1,37.2,47.9,41.7,36.4,99,66,32,30.08,29.85,26,6,26,0.00
2014-10-17,59.7,52.7,48.2,46.7,44.0,41.3,84,72,58,30.29,29.90,22,9,22,0.00
2014-10-18,59.4,46.6,38.3,44.8,40.8,36.1,99,82,53,30.44,30.28,17,4,17,0.00
2014-10-19,69.6,51.5,37.4,49.3,43.8,37.1,99,79,39,30.34,30.08,32,11,32,0.00
2014-10-20,72.0,56.5,41.0,48.8,41.2,34.1,98,62,26,30.25,30.09,16,5,16,0.00
2014-10-21,67.5,51.7,39.2,47.2,41.8,37.6,99,72,37,30.37,30.24,14,5,14,0.00
2014-10-22,65.7,51.6,40.8,47.5,43.7,39.4,99,76,49,30.42,30.27,24,10,24,0.00
2014-10-23,73.4,57.7,50.7,66.3,51.8,45.1,99,84,39,30.29,30.18,16,5,16,0.50
2014-10-24,72.0,57.0,45.7,67.3,55.5,45.4,99,95,72,30.22,30.06,19,6,19,0.01
2014-10-25,71.8,57.4,45.1,51.5,39.4,22.5,99,59,17,30.31,30.15,14,5,14,0.00
2014-10-26,70.9,55.0,41.0,48.6,38.4,27.9,82,57,25,30.26,29.77,27,9,27,0.00
2014-10-27,70.7,58.5,48.2,58.8,51.9,45.3,99,80,54,30.03,29.71,16,4,16,0.00
2014-10-28,55.0,47.4,40.3,46.1,36.6,32.4,92,67,48,30.27,30.03,21,9,22,0.00
2014-10-29,56.5,44.5,35.8,35.7,33.7,32.4,91,67,42,30.40,30.26,17,6,17,0.00
2014-10-30,63.3,48.6,35.8,44.0,38.4,28.9,97,71,38,30.47,30.19,27,8,27,0.00
2014-10-31,43.5,33.4,25.0,29.7,19.6,14.8,78,58,33,30.70,30.47,27,11,27,0.00
2014-11-1,48.9,33.3,19.0,25.4,20.6,15.0,90,63,28,30.67,30.41,17,7,17,0.00
2014-11-2,61.2,46.5,32.9,35.8,28.6,22.3,76,52,26,30.41,30.13,26,12,26,0.00
2014-11-3,59.5,51.4,42.3,56.9,46.4,35.4,99,83,69,30.13,30.00,24,8,24,0.09
2014-11-4,60.8,46.6,37.2,46.1,37.8,30.8,99,75,34,30.28,30.11,21,7,21,0.00
2014-11-5,59.4,46.5,34.3,46.8,39.3,33.4,99,78,48,30.27,30.06,33,9,33,0.00
2014-11-6,49.8,39.1,27.0,38.0,31.0,25.1,97,74,43,30.50,30.16,27,11,27,0.00
2014-11-7,55.9,42.6,27.0,44.6,32.7,26.3,99,72,35,30.44,29.94,33,9,33,0.00
2014-11-8,46.4,39.7,33.1,40.9,28.9,24.3,84,66,46,30.32,30.05,37,13,37,0.00
2014-11-9,52.9,43.9,36.5,36.4,33.7,29.7,82,68,50,30.12,29.88,17,6,17,0.00
2014-11-10,61.2,42.1,26.4,46.1,37.1,24.8,99,84,56,30.03,29.57,30,14,30,0.00
2014-11-11,26.8,23.5,20.1,24.8,20.2,14.4,99,87,76,30.52,30.01,30,15,30,0.00
2014-11-12,25.2,20.6,15.3,20.4,15.5,10.8,96,81,61,30.60,30.52,19,10,19,0.00
2014-11-13,26.4,20.9,9.0,21.4,17.0,6.9,94,85,70,30.63,30.58,21,10,22,0.00
2014-11-14,30.0,16.9,4.1,16.3,9.6,2.1,93,74,45,30.63,30.50,8,3,9,0.00
2014-11-15,27.3,21.5,14.0,24.0,18.5,10.9,99,88,57,30.51,30.31,11,4,11,0.00
2014-11-16,23.5,16.3,6.8,23.3,11.7,4.0,99,82,56,30.32,30.17,21,7,21,0.00
2014-11-17,15.6,10.2,1.8,9.8,5.2,-1.6,91,80,67,30.35,30.18,23,12,25,0.00
2014-11-18,24.4,13.9,1.0,17.5,9.0,-2.1,88,80,62,30.35,29.98,17,6,17,0.00
2014-11-19,69.4,21.9,14.4,50.5,16.7,10.4,92,80,51,30.27,29.91,23,10,23,0.00
2014-11-20,28.4,16.5,5.2,16.7,10.6,3.0,92,78,59,30.09,29.92,13,5,13,0.00
2014-11-21,35.4,23.0,4.8,32.3,17.9,3.0,93,82,59,30.14,29.83,21,8,21,0.00
2014-11-22,53.6,43.3,33.8,53.3,42.3,32.9,99,96,80,29.83,29.46,27,11,27,0.00
2014-11-23,54.5,43.3,32.9,54.2,43.0,31.2,99,99,94,29.46,29.19,27,13,27,0.09
2014-11-24,32.7,25.1,20.7,32.1,22.4,17.4,99,89,81,29.82,29.21,27,17,27,0.00
2014-11-25,37.2,24.4,12.0,20.9,15.4,5.6,94,72,30,29.95,29.80,15,6,15,0.00
2014-11-26,31.1,25.9,16.0,30.9,24.9,15.6,99,96,73,30.23,29.73,19,10,19,0.00
2014-11-27,16.0,5.5,-5.8,15.6,0.3,-9.1,98,79,58,30.37,30.06,17,7,17,0.00
2014-11-28,34.3,23.3,10.9,29.5,20.6,4.1,99,89,72,30.06,29.47,18,9,18,0.00
2014-11-29,47.3,35.2,24.4,43.0,33.5,24.2,99,94,71,29.48,29.31,24,6,24,0.00
2014-11-30,27.0,14.9,9.3,26.7,9.8,0.5,99,80,65,30.36,29.48,30,18,30,0.00
2014-12-1,17.1,9.2,5.0,4.9,-0.0,-5.8,81,66,42,30.57,30.27,22,8,22,0.00
2014-12-2,36.0,21.0,9.7,18.3,11.6,3.8,85,68,39,30.28,29.82,26,10,26,0.00
2014-12-3,34.3,23.7,16.0,19.8,16.4,12.4,91,75,48,30.19,29.90,15,6,16,0.00
2014-12-4,36.3,28.0,18.1,27.4,20.4,13.7,91,74,43,30.17,29.95,16,6,16,0.00
2014-12-5,36.9,32.3,29.7,36.6,31.9,27.4,99,98,91,30.19,29.93,11,4,11,0.00
2014-12-6,42.6,32.0,24.6,33.9,28.9,24.4,99,89,57,30.42,30.18,14,6,14,0.00
2014-12-7,35.8,31.4,27.1,34.4,30.9,26.3,99,98,92,30.37,29.94,21,9,21,0.05
2014-12-8,40.6,34.0,25.3,39.3,32.5,22.9,99,94,85,30.14,29.88,25,12,25,0.01
2014-12-9,34.3,25.9,19.6,28.6,24.2,18.8,99,94,76,30.29,30.13,19,6,19,0.00
2014-12-10,31.8,28.3,22.3,30.9,27.8,22.1,99,98,95,30.22,30.10,13,5,13,0.00
2014-12-11,33.8,30.7,27.3,33.0,30.4,27.1,99,99,96,30.12,30.04,12,5,12,0.00
2014-12-12,45.1,35.8,31.8,43.0,35.4,31.6,99,98,90,30.11,29.98,12,6,14,0.00
2014-12-13,50.2,45.0,34.3,49.9,44.7,34.1,99,99,99,30.00,29.80,14,7,14,0.00
2014-12-14,54.9,50.5,45.5,54.6,50.3,45.2,99,99,99,29.81,29.65,15,7,15,0.00
2014-12-15,49.5,45.7,31.1,49.2,45.5,30.9,99,99,99,29.66,29.43,24,9,24,0.39
2014-12-16,31.1,20.9,13.3,30.9,19.4,11.1,99,94,85,30.15,29.64,27,14,27,0.00
2014-12-17,30.2,18.2,11.1,21.8,15.8,10.8,99,91,68,30.18,30.10,12,5,12,0.00
2014-12-18,27.3,22.3,15.4,24.4,20.9,15.3,99,94,85,30.13,30.06,8,3,8,0.00
2014-12-19,31.5,28.3,25.2,31.2,28.1,24.4,99,99,97,30.11,30.01,10,5,10,0.00
2014-12-20,33.3,31.2,29.1,33.0,31.0,28.9,99,99,99,30.01,29.91,13,5,13,0.00
2014-12-21,40.5,37.2,33.3,40.0,36.9,33.0,99,99,99,29.91,29.57,22,11,22,0.01
2014-12-22,40.5,37.3,34.2,40.0,37.1,33.9,99,99,99,29.58,29.30,17,9,17,0.21
2014-12-23,34.7,33.2,32.4,34.5,32.9,32.1,99,99,99,29.67,29.30,15,6,15,0.24
2014-12-24,33.8,32.3,28.4,33.6,32.0,28.2,99,99,99,29.65,29.53,24,10,24,0.12
2014-12-25,49.3,35.4,28.8,40.0,33.5,28.5,99,93,66,29.62,29.52,24,9,24,0.01
2014-12-26,34.9,32.1,27.0,34.6,31.9,26.7,99,99,99,29.84,29.60,16,6,16,0.00
2014-12-27,32.2,24.6,14.5,31.9,23.4,13.9,99,95,79,30.05,29.76,17,7,17,0.00
2014-12-28,36.3,21.5,11.8,29.7,19.6,11.7,99,93,68,30.09,29.96,11,4,11,0.00
2014-12-29,22.8,15.4,2.5,22.6,12.6,-0.7,99,89,70,30.50,30.09,21,10,21,0.00
2014-12-30,7.9,0.7,-4.5,-0.6,-4.7,-8.0,87,78,62,30.65,30.50,16,8,16,0.00
2014-12-31,23.2,8.4,-5.1,9.7,1.8,-8.1,88,75,55,30.51,29.98,42,13,42,0.00
2015-1-1,39.0,23.3,11.7,25.5,17.5,7.8,94,79,54,29.99,29.81,21,8,21,0.00
2015-1-2,32.0,23.7,14.7,27.8,20.9,13.0,99,90,68,30.11,29.84,14,5,14,0.00